Hourly Data Report for December 02, 2016

TORONTO CITY
ONTARIO

43°40'00.000" N
79°24'00.000" W
112.50 m
6158355
71508
XTO

Download Data

Hourly Data (December 2016)
Hourly Data Report for December 2, 2016
TIME
LST
Temp Definition
°C
Dew Point Definition
°C
Rel Hum Definition
%
Precip. Amount Definition
mm

Wind Dir Definition
10's deg

Wind Spd Definition
km/h
Visibility Definition
km
Stn Press Definition
kPa
Hmdx Definition


Wind Chill Definition


Weather Definition


00:00 5.7 1.6 75 0.0 LegendMM LegendMM   99.28     LegendNANA
01:00 5.7 1.2 73 0.0 LegendMM LegendMM   99.31     LegendNANA
02:00 5.6 1.0 72 0.0 LegendMM LegendMM   99.38     LegendNANA
03:00 5.0 0.4 72 0.0 LegendMM LegendMM   99.43     LegendNANA
04:00 4.9 0.3 72 0.0 LegendMM LegendMM   99.45     LegendNANA
05:00 4.5 -0.3 71 0.0 LegendMM LegendMM   99.49     LegendNANA
06:00 4.1 -0.5 72 0.0 LegendMM LegendMM   99.56     LegendNANA
07:00 4.0 -0.8 71 0.0 LegendMM LegendMM   99.62     LegendNANA
08:00 4.2 -0.1 74 0.0 LegendMM LegendMM   99.67     LegendNANA
09:00 4.8 -0.7 67 0.0 LegendMM LegendMM   99.69     LegendNANA
10:00 5.9 -1.0 61 0.0 LegendMM LegendMM   99.69     LegendNANA
11:00 6.3 -1.1 59 0.0 LegendMM LegendMM   99.73     LegendNANA
12:00 5.9 -1.0 61 0.0 LegendMM LegendMM   99.72     LegendNANA
13:00 5.8 -0.8 62 0.0 LegendMM LegendMM   99.71     LegendNANA
14:00 5.6 -0.8 63 0.0 LegendMM LegendMM   99.72     LegendNANA
15:00 5.3 -0.5 66 0.0 LegendMM LegendMM   99.76     LegendNANA
16:00 4.3 1.4 82 0.0 LegendMM LegendMM   99.85     LegendNANA
17:00 4.2 1.3 82 0.0 LegendMM LegendMM   99.92     LegendNANA
18:00 4.3 -0.3 72 0.0 LegendMM LegendMM   100.00     LegendNANA
19:00 3.9 -0.9 71 0.0 LegendMM LegendMM   100.08     LegendNANA
20:00 3.3 -1.6 71 0.0 LegendMM LegendMM   100.13     LegendNANA
21:00 2.8 -1.6 73 0.0 LegendMM LegendMM   100.18     LegendNANA
22:00 3.3 -1.7 70 0.0 LegendMM LegendMM   100.28     LegendNANA
23:00 3.3 -2.1 68 0.0 LegendMM LegendMM   100.33     LegendNANA

Notes on Data Quality.

Legend

  • E = Estimated
  • M = Missing
  • NA = Not Available*
  • [empty] = Indicates an unobserved value
Date modified: